TimeMDT,TemperatureF,Dew PointF,Humidity,Sea Level PressureIn,VisibilityMPH,Wind Direction,Wind SpeedMPH,Gust SpeedMPH,PrecipitationIn,Events,Conditions,WindDirDegrees,DateUTC
12:53 AM,52.0,46.9,83,30.06,10.0,South,6.9,-,N/A,,Mostly Cloudy,170,2012-09-27 06:53:00
1:53 AM,51.1,48.0,89,30.07,10.0,South,6.9,-,N/A,,Mostly Cloudy,180,2012-09-27 07:53:00
2:53 AM,51.1,46.0,83,30.06,10.0,South,6.9,-,N/A,,Mostly Cloudy,180,2012-09-27 08:53:00
3:53 AM,50.0,46.0,86,30.04,10.0,SW,9.2,-,N/A,,Mostly Cloudy,220,2012-09-27 09:53:00
4:53 AM,48.0,45.0,89,30.05,8.0,South,6.9,-,N/A,,Scattered Clouds,180,2012-09-27 10:53:00
5:53 AM,46.9,43.0,86,30.07,6.0,South,5.8,-,N/A,,Scattered Clouds,180,2012-09-27 11:53:00
6:53 AM,46.9,43.0,86,30.12,8.0,ESE,8.1,-,N/A,,Scattered Clouds,120,2012-09-27 12:53:00
7:53 AM,48.9,45.0,86,30.11,7.0,SE,3.5,-,N/A,,Mostly Cloudy,130,2012-09-27 13:53:00
8:53 AM,54.0,46.0,75,30.09,10.0,WSW,4.6,-,N/A,,Mostly Cloudy,240,2012-09-27 14:53:00
9:53 AM,57.0,46.9,69,30.09,9.0,NW,3.5,-,N/A,,Mostly Cloudy,310,2012-09-27 15:53:00
10:53 AM,60.1,45.0,57,30.09,10.0,Variable,3.5,-,N/A,,Mostly Cloudy,0,2012-09-27 16:53:00
11:53 AM,60.1,44.1,55,30.08,10.0,WNW,3.5,-,N/A,,Mostly Cloudy,300,2012-09-27 17:53:00
12:53 PM,64.0,45.0,50,30.06,10.0,Variable,4.6,-,N/A,,Mostly Cloudy,0,2012-09-27 18:53:00
1:53 PM,64.0,46.0,52,30.03,10.0,NW,8.1,-,N/A,,Mostly Cloudy,320,2012-09-27 19:53:00
2:53 PM,64.9,44.1,47,30.03,10.0,NNW,4.6,-,N/A,,Mostly Cloudy,330,2012-09-27 20:53:00
3:53 PM,62.1,46.0,56,30.04,10.0,West,10.4,-,N/A,,Mostly Cloudy,280,2012-09-27 21:53:00
4:11 PM,62.6,48.2,59,30.17,9.0,WNW,15.0,-,0.00,Rain-Thunderstorm,Light Thunderstorms and Rain,300,2012-09-27 22:11:00
4:26 PM,62.6,48.2,59,30.17,10.0,WNW,8.1,-,0.00,,Mostly Cloudy,290,2012-09-27 22:26:00
4:53 PM,64.0,46.0,52,30.04,10.0,NNW,18.4,26.5,0.00,,Mostly Cloudy,340,2012-09-27 22:53:00
5:53 PM,61.0,46.0,58,30.06,10.0,North,8.1,-,N/A,,Mostly Cloudy,360,2012-09-27 23:53:00
6:53 PM,55.9,50.0,80,30.07,10.0,SE,5.8,-,N/A,,Mostly Cloudy,130,2012-09-28 00:53:00
7:53 PM,55.0,48.9,80,30.10,10.0,Calm,Calm,-,N/A,,Mostly Cloudy,0,2012-09-28 01:53:00
8:53 PM,55.0,50.0,83,30.11,10.0,ENE,5.8,-,N/A,,Mostly Cloudy,60,2012-09-28 02:53:00
9:53 PM,54.0,48.9,83,30.11,10.0,East,3.5,-,N/A,,Mostly Cloudy,100,2012-09-28 03:53:00
10:53 PM,53.1,48.9,86,30.11,10.0,Calm,Calm,-,N/A,,Mostly Cloudy,0,2012-09-28 04:53:00
11:05 PM,53.6,48.2,82,30.24,10.0,Calm,Calm,-,N/A,,Mostly Cloudy,0,2012-09-28 05:05:00
11:53 PM,51.1,46.9,86,30.10,10.0,South,6.9,-,N/A,,Scattered Clouds,190,2012-09-28 05:53:00